Temperature
16 15 14 14 13 13 13 12 12 12 11 11 11 11 10 10 10 10 10 10 10 10 10 11 11 11 11 11 11 12 12 12 12 13 13 13 14 14 14 14 14 14 15
16 15 14 14 13 13 12 12 12 11 11 11 11 10 10 10 10 10 10 10 10 10 10 10 10 10 10 11 11 11 11 12 12 12 12 13 13 13 13 14 14 14 14
16 15 14 14 13 13 12 12 12 11 11 11 10 10 10 10 10 10 10 10 10 10 10 10 10 10 10 10 10 10 11 11 11 12 12 12 13 13 13 13 13 14 14
15 15 14 14 13 13 12 12 11 11 11 11 10 10 10 10 10 10 10 10 10 9 9 9 9 10 10 10 10 10 10 10 11 11 11 12 12 12 13 13 13 14 14
15 14 14 14 13 13 12 12 11 11 11 11 10 10 10 10 10 10 10 10 9 9 9 9 9 9 9 9 9 9 10 10 10 10 11 11 12 12 12 12 13 13 13
15 14 14 14 13 13 12 12 11 11 11 11 10 10 10 10 10 10 10 10 9 9 9 9 9 9 9 9 9 9 9 9 10 10 10 10 11 11 12 12 12 12 13
15 15 14 14 13 13 12 12 11 11 11 11 11 10 10 10 10 10 9 9 9 9 9 9 9 9 9 9 9 9 9 9 9 9 10 10 11 11 11 11 11 12 12
15 15 14 14 13 13 12 12 11 11 11 11 10 10 10 10 10 9 9 9 9 9 9 9 8 9 9 9 9 9 9 9 9 9 9 10 10 10 10 11 11 11 12
16 15 14 14 13 13 12 12 11 11 11 11 10 10 10 10 10 9 9 9 9 9 9 8 8 8 8 8 8 8 9 9 9 9 9 9 10 10 10 10 10 10 11
15 15 14 14 13 13 12 12 12 11 11 11 10 10 10 10 10 10 9 9 9 8 8 8 8 8 8 8 8 8 8 8 8 8 9 9 9 10 10 10 10 10 11
15 15 14 14 13 13 12 12 12 11 11 11 10 10 10 10 10 10 9 9 9 8 8 8 8 8 8 8 8 8 8 8 8 8 8 9 9 9 10 10 10 10 10
15 15 14 14 13 13 12 12 11 11 11 11 11 11 11 10 10 10 9 9 9 8 8 8 8 8 8 8 8 8 8 8 8 8 8 8 9 9 9 10 10 10 11
15 15 14 14 13 13 12 12 11 11 11 11 11 11 11 10 10 10 9 9 8 8 8 8 8 7 7 7 8 8 7 7 7 7 7 8 9 9 9 10 10 10 10
15 15 14 13 13 13 12 12 12 11 11 11 11 10 10 10 10 10 9 9 8 8 8 8 8 8 7 7 8 8 8 8 7 7 8 8 9 9 9 9 9 10 10
15 14 14 13 13 13 13 12 12 12 11 11 11 10 10 10 10 10 9 9 8 8 8 8 8 7 7 7 8 8 7 7 7 7 7 8 8 9 9 9 9 9 10
14 14 13 13 13 13 13 12 12 12 12 11 11 11 11 10 10 10 9 9 9 8 8 8 8 7 7 8 8 8 8 8 8 8 8 8 8 9 9 9 9 9 9
14 14 13 13 13 13 12 12 12 12 12 12 11 11 11 10 10 10 9 9 9 8 8 8 8 8 8 8 8 8 8 8 8 8 8 8 8 9 9 9 9 9 9
14 13 13 13 13 13 12 12 12 12 12 12 11 11 11 11 10 10 10 9 9 9 8 8 8 8 8 8 8 8 8 8 8 8 8 8 8 8 9 9 9 9 9
13 13 13 12 12 12 12 12 12 12 12 12 11 11 11 11 10 10 10 9 9 9 8 8 8 8 8 8 8 8 8 8 8 8 8 8 8 8 9 9 9 9 9
13 13 12 12 12 12 12 12 12 12 12 12 11 11 11 10 10 10 10 9 9 9 9 9 9 9 8 8 8 8 8 8 8 8 8 8 8 8 9 9 9 9 9
12 12 12 12 12 12 12 12 12 12 12 11 11 11 10 10 10 10 10 10 9 9 9 9 9 9 9 8 8 8 8 8 8 8 8 8 8 9 9 9 9 9 9
11 12 12 12 12 12 12 12 12 11 11 11 11 11 10 10 10 10 10 10 9 9 9 9 9 9 9 8 8 8 8 8 8 8 9 8 9 9 9 9 9 9 9
11 11 11 11 11 11 11 11 11 11 11 11 11 11 10 10 10 10 9 9 9 9 9 9 9 9 9 8 8 8 8 8 8 8 8 9 9 9 9 9 9 9 9
11 11 11 11 11 11 11 11 11 11 11 11 10 10 10 10 10 9 9 9 9 9 9 9 9 9 8 8 8 8 8 8 8 8 8 8 9 9 9 9 9 9 9
10 10 10 11 11 11 11 11 11 10 10 10 10 10 10 10 9 9 9 9 9 9 9 9 9 9 8 8 8 8 8 8 8 8 8 8 8 9 9 9 9 9 9
10 10 10 10 10 10 10 10 10 10 10 10 10 10 9 9 9 9 9 9 9 8 8 8 8 8 8 8 8 8 8 8 8 8 8 8 8 8 9 9 9 9 9
Wind_Speed
2 1 1 2 3 3 3 4 4 4 5 6 6 7 6 7 7 6 7 8 8 8 8 8 8 8 7 6 6 6 6 6 8 7 5 5 4 4 3 5 7 8 10
2 1 2 2 2 3 4 4 5 5 6 6 6 7 7 7 6 6 7 8 8 8 8 8 8 8 8 7 7 8 7 7 7 8 7 6 6 5 4 5 5 6 7
0 1 2 2 2 3 4 5 5 5 6 6 6 7 7 7 7 7 7 8 8 8 8 8 8 8 8 7 7 8 7 9 7 7 7 6 5 5 4 4 5 4 5
1 2 2 2 3 4 4 5 5 5 6 6 6 6 7 7 8 8 7 7 7 7 8 8 8 9 9 8 8 8 8 8 8 8 8 6 6 5 4 3 4 3 3
1 3 3 3 3 4 5 5 6 6 8 6 6 7 7 8 7 4 5 8 7 8 9 9 10 11 11 9 10 7 7 6 6 7 7 6 6 5 4 3 3 3 3
3 4 3 3 4 5 5 6 6 6 6 6 7 7 8 9 2 2 4 7 8 9 10 9 11 12 13 14 15 14 12 10 8 7 7 7 7 5 4 4 3 2 3
4 5 4 4 4 5 6 5 6 6 6 6 7 7 7 7 7 7 7 7 9 9 10 10 12 13 10 8 9 13 14 17 16 11 10 9 9 7 5 5 4 4 4
6 5 4 4 5 4 5 5 5 5 6 6 7 8 7 9 8 8 9 8 10 10 11 11 10 10 11 9 8 8 8 9 12 12 11 12 11 8 6 6 5 4 4
5 4 4 4 4 5 6 5 6 5 6 7 8 8 8 8 8 9 9 7 9 10 11 10 10 9 10 9 7 8 9 9 12 14 14 14 14 12 7 4 3 4 4
4 3 3 3 5 6 6 6 6 5 7 8 8 7 8 9 9 10 10 7 9 9 9 9 10 9 9 7 6 7 9 9 9 10 8 10 11 11 12 9 6 5 4
3 3 4 4 5 7 7 6 6 7 7 8 9 9 9 10 10 11 12 7 8 9 9 8 6 4 6 7 8 8 10 9 8 8 8 8 8 8 9 9 9 7 7
3 4 5 5 7 7 5 5 6 7 8 9 8 9 8 7 7 9 13 13 11 9 9 9 5 4 7 9 9 11 12 9 8 9 9 8 7 7 8 9 9 8 7
4 5 5 7 7 7 7 7 7 7 7 7 6 7 6 5 4 7 11 13 14 10 10 12 12 13 12 11 14 15 11 9 9 10 10 9 7 7 7 7 7 7 7
5 5 6 7 8 8 6 6 7 6 6 6 6 7 7 6 4 1 2 5 9 9 9 11 13 16 14 13 12 10 9 10 10 10 8 8 6 6 7 7 7 7 6
6 6 7 8 9 7 7 7 8 7 7 7 7 7 7 8 5 3 5 6 7 6 6 8 9 9 8 8 9 9 9 9 10 10 9 8 7 6 6 6 7 7 7
6 7 7 7 7 6 6 7 10 12 13 15 15 12 9 11 12 11 10 10 10 7 5 9 10 10 9 8 8 8 8 8 9 9 9 8 7 6 6 5 6 7 7
7 7 7 8 8 7 7 7 7 8 12 16 17 17 17 17 16 15 14 12 11 7 6 9 10 10 9 9 8 8 8 8 7 8 8 8 7 6 6 6 7 7 8
8 9 9 8 9 9 8 8 8 8 7 7 10 16 18 19 18 18 13 7 9 8 8 10 10 9 8 8 8 7 7 6 6 6 7 7 6 6 6 7 7 8 8
8 9 8 8 8 9 9 9 9 8 7 7 6 6 10 14 16 16 10 7 10 10 9 9 9 8 7 7 7 7 6 6 6 6 6 6 6 6 7 7 7 9 8
8 12 11 10 10 10 9 9 8 7 7 7 7 6 4 5 6 7 7 8 9 9 8 8 7 7 6 7 7 6 6 6 6 6 7 6 6 6 7 8 7 7 7
10 10 11 10 10 10 10 9 8 8 8 7 6 5 5 6 8 7 6 6 6 7 7 7 7 7 6 5 5 6 6 6 6 6 6 6 6 6 7 7 7 7 7
10 10 9 9 8 8 9 8 8 8 9 9 6 5 5 6 8 7 7 6 6 5 5 6 6 6 5 4 5 5 5 5 5 5 6 6 6 6 6 7 7 6 7
9 10 10 10 9 8 9 9 8 8 8 7 6 6 5 5 6 7 7 6 5 5 5 5 5 6 5 4 4 5 5 4 4 3 4 5 5 5 6 6 7 7 7
10 10 11 10 9 8 8 8 7 7 7 7 6 6 6 5 5 6 6 5 5 5 4 4 5 6 7 5 4 3 2 2 3 3 4 4 5 5 5 5 6 6 7
10 10 10 9 9 9 8 7 6 6 6 6 6 6 5 5 5 5 5 5 6 5 6 6 4 5 6 5 3 2 0 1 2 3 3 2 4 5 5 6 6 6 6
10 10 9 9 8 7 6 6 6 6 5 6 6 6 5 5 5 5 5 5 5 5 5 6 5 5 3 2 3 2 1 1 1 2 3 3 4 5 6 5 7 6 7
Wind_Direction
202 195 298 285 305 308 290 288 302 310 307 297 294 294 293 290 286 284 284 284 283 282 282 282 279 278 276 280 282 278 271 267 272 277 274 277 270 269 270 260 251 238 234
178 186 249 271 294 305 307 318 315 305 299 296 297 295 291 291 292 292 290 292 292 290 287 284 282 282 276 272 272 276 275 271 271 277 279 275 269 259 253 258 255 246 234
134 288 280 283 294 295 294 293 293 292 292 292 288 288 290 292 289 285 280 280 282 285 287 286 283 281 281 276 274 273 275 277 275 275 277 269 265 258 251 259 258 248 237
124 277 282 285 282 283 288 290 289 290 290 285 284 285 285 284 281 279 281 284 288 290 289 287 285 279 274 273 274 268 270 272 276 278 275 274 265 258 239 247 265 247 233
227 260 265 271 282 281 281 284 285 284 287 289 291 287 284 281 281 298 307 298 304 301 294 288 283 280 275 269 271 273 282 282 280 278 277 278 270 266 251 233 248 262 242
229 256 263 269 274 274 276 274 279 283 288 287 283 284 284 289 295 279 285 299 295 291 289 287 286 278 268 253 249 250 250 258 265 269 275 276 278 280 283 261 242 258 262
228 248 251 257 271 276 287 296 295 294 292 289 286 285 285 286 266 247 251 273 283 282 283 283 285 285 297 290 267 254 249 246 243 249 259 266 276 276 284 280 261 246 253
228 242 254 262 274 282 284 284 286 287 288 288 286 286 285 286 271 245 246 260 275 276 273 271 273 276 281 285 289 283 272 259 245 240 243 250 256 261 259 264 259 260 256
237 245 262 275 284 285 284 285 286 285 286 285 283 279 278 280 266 241 237 271 275 277 275 275 273 272 271 267 267 273 276 275 271 257 236 235 237 239 233 241 246 250 253
250 260 271 274 275 278 279 279 283 284 282 284 285 286 284 280 264 235 226 262 279 286 286 280 272 271 274 258 255 265 270 273 282 287 274 252 240 234 224 220 225 233 242
261 266 265 261 261 262 261 262 271 276 280 281 281 278 273 269 259 233 222 241 270 287 293 295 300 305 278 265 260 262 267 281 288 283 278 268 248 233 225 220 216 218 228
254 265 269 267 270 276 273 269 269 270 276 274 272 273 272 264 251 226 215 226 249 272 281 287 297 295 280 269 261 259 264 271 269 267 262 259 251 238 228 222 215 211 212
246 258 264 268 266 266 263 267 269 266 272 283 290 292 292 286 261 218 217 232 243 253 271 283 291 283 275 267 255 251 252 251 252 254 254 252 249 243 229 223 219 210 207
242 252 260 262 263 260 251 261 267 271 277 285 293 294 299 300 306 322 256 259 255 257 268 280 279 269 259 258 265 254 239 241 244 249 252 250 249 247 231 215 210 204 204
245 256 263 265 265 258 254 251 256 257 258 258 273 282 289 292 299 287 288 298 304 317 316 292 283 277 267 256 249 247 242 235 236 242 248 249 245 245 235 214 207 202 204
247 256 265 272 274 273 271 271 248 240 242 233 235 246 264 265 271 273 272 273 276 279 284 279 279 278 277 274 264 254 247 242 237 237 238 238 238 236 234 220 210 207 206
244 259 269 276 282 281 279 278 280 260 241 240 242 243 244 257 267 271 273 281 276 250 253 266 270 271 273 273 269 259 251 245 238 234 235 232 233 233 226 220 215 210 206
249 257 258 263 268 273 277 279 279 279 279 268 247 238 243 249 255 260 266 284 277 246 245 257 265 268 269 270 269 265 256 248 241 238 236 233 227 227 225 221 217 212 204
262 266 267 272 274 277 279 281 279 278 279 281 283 265 240 242 249 255 248 246 263 271 268 267 267 269 271 272 270 264 258 250 242 233 233 230 226 224 222 220 215 211 206
265 261 263 272 275 275 277 279 281 279 279 282 287 287 286 275 273 260 234 234 250 264 272 279 280 274 269 270 269 264 258 250 242 236 230 225 220 218 222 220 211 203 201
278 274 253 255 263 270 276 283 285 283 284 285 285 284 285 289 287 287 278 260 259 266 274 278 282 282 275 270 267 263 261 252 242 234 229 221 217 214 216 214 206 203 201
282 283 281 277 272 272 277 281 283 283 284 286 286 288 263 275 285 286 288 289 287 280 282 284 282 281 274 270 273 267 261 260 253 235 224 220 214 210 213 211 204 197 198
279 281 282 282 281 280 277 275 279 283 285 287 288 291 287 284 290 292 295 301 302 294 291 290 287 285 281 268 263 264 265 270 268 255 234 224 214 205 204 204 201 195 194
289 285 285 284 283 283 281 282 284 286 288 294 293 293 293 293 295 298 301 303 305 296 289 286 285 285 285 275 263 259 253 275 288 274 260 233 215 210 204 199 203 204 198
294 293 292 289 285 282 282 284 286 292 296 298 297 299 305 305 302 308 317 313 309 305 305 300 292 295 298 303 297 288 317 323 323 324 300 271 234 216 212 205 203 200 195
295 292 291 290 288 286 286 287 286 290 290 295 303 304 307 308 309 317 317 312 317 315 308 305 307 318 323 328 327 336 270 260 286 304 289 265 246 233 221 216 209 203 199
Height
1528 1527 1527 1526 1526 1525 1523 1522 1521 1520 1518 1516 1515 1514 1513 1512 1511 1510 1509 1508 1507 1507 1506 1506 1505 1505 1504 1504 1504 1504 1504 1504 1502 1501 1501 1501 1500 1499 1498 1498 1498 1498 1498
1526 1525 1525 1524 1523 1522 1521 1519 1518 1516 1515 1513 1512 1511 1509 1508 1507 1506 1505 1504 1503 1502 1502 1501 1500 1500 1499 1499 1499 1499 1499 1499 1498 1496 1496 1496 1495 1495 1494 1493 1493 1493 1493
1524 1523 1523 1521 1520 1519 1518 1516 1515 1513 1511 1510 1509 1507 1506 1505 1503 1502 1501 1500 1499 1498 1497 1496 1495 1495 1494 1493 1493 1493 1493 1493 1493 1492 1491 1491 1490 1490 1489 1489 1488 1488 1488
1521 1521 1520 1519 1517 1516 1515 1513 1512 1510 1508 1507 1505 1504 1502 1501 1500 1498 1497 1496 1495 1494 1493 1491 1490 1489 1489 1488 1488 1488 1488 1487 1487 1487 1486 1486 1486 1486 1485 1484 1484 1483 1483
1518 1518 1517 1516 1514 1513 1511 1510 1508 1507 1505 1503 1502 1500 1499 1497 1496 1495 1494 1492 1491 1489 1487 1486 1485 1484 1483 1483 1483 1482 1482 1482 1481 1481 1481 1481 1481 1481 1481 1480 1480 1479 1479
1515 1515 1514 1513 1511 1510 1508 1507 1505 1503 1502 1500 1498 1496 1495 1494 1493 1491 1489 1487 1485 1483 1481 1479 1479 1478 1477 1477 1476 1476 1476 1476 1476 1476 1476 1476 1476 1477 1477 1476 1476 1476 1475
1512 1512 1511 1510 1508 1507 1505 1504 1502 1500 1498 1496 1494 1492 1491 1489 1488 1486 1484 1482 1479 1477 1475 1474 1473 1473 1472 1471 1470 1469 1469 1469 1470 1470 1469 1470 1471 1472 1472 1472 1472 1471 1471
1509 1509 1508 1507 1505 1504 1502 1500 1498 1496 1494 1492 1490 1488 1486 1485 1483 1481 1479 1477 1474 1472 1470 1468 1467 1466 1466 1465 1464 1463 1463 1463 1463 1463 1463 1463 1465 1466 1467 1468 1467 1467 1467
1506 1506 1505 1503 1502 1500 1498 1496 1494 1492 1490 1488 1486 1484 1482 1480 1478 1476 1474 1472 1469 1467 1465 1464 1462 1461 1460 1459 1458 1457 1457 1456 1457 1457 1457 1457 1458 1460 1461 1462 1463 1463 1462
1503 1502 1501 1499 1498 1496 1494 1492 1490 1488 1486 1484 1482 1480 1478 1476 1474 1472 1470 1468 1465 1463 1461 1459 1458 1456 1455 1454 1453 1451 1450 1450 1451 1451 1451 1451 1452 1453 1454 1456 1457 1458 1458
1499 1498 1496 1495 1493 1492 1490 1488 1486 1484 1482 1480 1478 1476 1474 1472 1470 1468 1466 1464 1461 1458 1456 1454 1452 1450 1449 1448 1447 1446 1445 1444 1444 1444 1444 1444 1445 1446 1447 1449 1451 1453 1454
1494 1493 1492 1491 1489 1488 1486 1484 1482 1480 1478 1476 1474 1472 1470 1468 1466 1463 1461 1459 1457 1454 1451 1448 1447 1445 1443 1442 1440 1439 1439 1438 1438 1437 1437 1438 1439 1440 1441 1443 1445 1446 1448
1490 1489 1488 1486 1485 1483 1482 1480 1479 1477 1475 1473 1471 1469 1467 1465 1462 1459 1456 1454 1452 1449 1446 1443 1441 1439 1437 1435 1434 1433 1432 1432 1431 1431 1431 1432 1433 1434 1436 1437 1439 1441 1443
1485 1484 1483 1482 1481 1479 1478 1476 1475 1473 1471 1470 1468 1465 1463 1461 1458 1455 1452 1450 1447 1443 1440 1438 1436 1433 1431 1429 1428 1427 1426 1425 1425 1425 1425 1426 1428 1429 1430 1432 1433 1436 1438
1481 1480 1479 1478 1477 1475 1473 1472 1470 1468 1467 1465 1463 1461 1458 1456 1454 1451 1448 1445 1442 1439 1435 1433 1430 1428 1426 1424 1422 1421 1420 1420 1419 1419 1420 1421 1422 1423 1425 1427 1429 1431 1433
1477 1476 1475 1474 1473 1471 1469 1467 1465 1464 1461 1459 1457 1456 1453 1451 1448 1445 1443 1440 1437 1434 1430 1427 1425 1423 1421 1419 1417 1416 1415 1414 1414 1414 1415 1416 1417 1418 1420 1422 1424 1426 1428
1472 1471 1470 1469 1468 1466 1464 1462 1460 1458 1456 1454 1452 1450 1447 1445 1443 1440 1438 1435 1432 1429 1425 1422 1420 1417 1416 1414 1412 1411 1410 1409 1409 1409 1410 1410 1412 1413 1415 1416 1418 1421 1423
1467 1466 1465 1464 1462 1461 1459 1457 1455 1452 1451 1448 1446 1444 1442 1440 1437 1435 1432 1429 1426 1423 1420 1417 1415 1413 1411 1409 1407 1406 1405 1404 1403 1403 1404 1405 1407 1408 1410 1411 1413 1416 1418
1462 1461 1460 1459 1458 1456 1454 1452 1450 1447 1445 1443 1441 1439 1437 1434 1432 1430 1427 1424 1421 1418 1416 1414 1411 1408 1406 1404 1402 1401 1400 1399 1399 1399 1399 1400 1401 1403 1405 1407 1409 1411 1414
1457 1456 1455 1453 1452 1450 1449 1447 1444 1442 1440 1438 1436 1434 1432 1429 1427 1424 1422 1419 1416 1414 1412 1409 1406 1404 1401 1399 1397 1396 1395 1394 1394 1394 1395 1396 1397 1398 1400 1402 1404 1407 1410
1452 1451 1449 1447 1446 1444 1443 1441 1439 1437 1435 1433 1431 1429 1427 1424 1422 1420 1418 1415 1412 1410 1407 1404 1402 1399 1397 1395 1393 1392 1391 1390 1390 1390 1390 1391 1393 1394 1396 1398 1400 1403 1406
1447 1445 1444 1442 1440 1439 1437 1436 1434 1432 1430 1428 1425 1424 1421 1419 1417 1415 1413 1410 1408 1405 1403 1400 1397 1395 1393 1392 1390 1388 1387 1387 1386 1386 1387 1388 1389 1391 1392 1394 1397 1399 1402
1441 1440 1438 1437 1435 1433 1432 1430 1428 1427 1425 1423 1421 1419 1417 1415 1413 1411 1408 1406 1403 1400 1398 1396 1393 1391 1389 1388 1386 1385 1384 1383 1383 1383 1384 1384 1386 1387 1389 1391 1393 1396 1398
1437 1435 1433 1431 1429 1427 1426 1424 1423 1421 1420 1418 1416 1414 1412 1410 1408 1406 1404 1402 1399 1396 1394 1391 1389 1387 1385 1384 1382 1381 1380 1380 1380 1380 1381 1381 1382 1384 1386 1388 1390 1392 1395
1432 1430 1428 1426 1424 1423 1421 1419 1418 1416 1415 1414 1412 1410 1408 1407 1405 1402 1400 1398 1395 1393 1390 1388 1386 1384 1382 1380 1379 1378 1377 1377 1377 1377 1378 1379 1380 1381 1383 1385 1387 1390 1392
1428 1425 1423 1421 1419 1418 1416 1414 1413 1411 1410 1409 1408 1406 1405 1403 1401 1399 1397 1395 1392 1390 1387 1385 1383 1381 1379 1377 1375 1374 1373 1373 1373 1374 1375 1376 1377 1379 1380 1382 1384 1387 1390